Location: Goettingen
(51.5300°N, 9.9433°E)
Time: 07:27:31
(UTC+01:00)

ISS - Pass Details

Date: 08 December 2018
Orbit: 401 x 408 km, 51.6° (Epoch: 12 December)

Event Time Altitude Azimuth Distance (km) Brightness Sun altitude
Rises 19:11:42 0° 282° (WNW) 2,319 1.2 -26.8°
Reaches altitude 10° 19:14:03 10° 267° (W) 1,456 0.0 -27.1°
Enters shadow 19:15:34 19° 244° (WSW) 1,037 -1.1 -27.4°
